When you browse on this site, cookies collect data to enhance your experience and personalize the content and advertising you see.
Visit our Privacy Policy to learn more. By continuing to use the site, you agree to this use of cookies and data.
  • en France
  • Liste des pays
  • À 7 jours
  • Température de l'eau
  • Carte météo
  • Widgets météo
  • user-avatar
    Se connecter

    Météo par heure à Bulawayo

    Ce jour, 4 Juin, Jeudi

    Heure Température Précipitation Vent Pression Humidité
    00:00 +11°C° 0 mm 3 m/s 651 mmHg 65%
    01:00 +10°C° 0 mm 3 m/s 650 mmHg 70%
    02:00 +9°C° 0 mm 3 m/s 650 mmHg 74%
    03:00 +9°C° 0 mm 3 m/s 650 mmHg 77%
    04:00 +9°C° 0 mm 2 m/s 650 mmHg 80%
    05:00 +8°C° 0 mm 2 m/s 650 mmHg 82%
    06:00 +10°C° 0 mm 3 m/s 651 mmHg 75%
    07:00 +11°C° 0 mm 3 m/s 652 mmHg 68%
    08:00 +13°C° 0 mm 3 m/s 652 mmHg 60%
    09:00 +17°C° 0 mm 3 m/s 653 mmHg 51%
    10:00 +20°C° 0 mm 3 m/s 654 mmHg 41%
    11:00 +24°C° 0 mm 2 m/s 654 mmHg 32%
    12:00 +25°C° 0 mm 2 m/s 654 mmHg 28%
    13:00 +25°C° 0 mm 3 m/s 653 mmHg 24%
    14:00 +26°C° 0 mm 3 m/s 653 mmHg 20%
    15:00 +25°C° 0 mm 3 m/s 652 mmHg 22%
    16:00 +24°C° 0 mm 3 m/s 652 mmHg 23%
    17:00 +22°C° 0 mm 3 m/s 652 mmHg 25%
    18:00 +20°C° 0 mm 4 m/s 652 mmHg 33%
    19:00 +18°C° 0 mm 4 m/s 652 mmHg 41%
    20:00 +14°C° 0 mm 4 m/s 651 mmHg 49%
    21:00 +14°C° 0 mm 4 m/s 652 mmHg 53%
    22:00 +13°C° 0 mm 4 m/s 652 mmHg 56%
    23:00 +13°C° 0 mm 5 m/s 652 mmHg 59%

    Demain, 5 Juin, Vendredi

    Heure Température Précipitation Vent Pression Humidité
    00:00 +12°C° 0 mm 4 m/s 652 mmHg 64%
    01:00 +12°C° 0 mm 4 m/s 651 mmHg 68%
    02:00 +11°C° 0 mm 4 m/s 651 mmHg 73%
    03:00 +10°C° 0 mm 4 m/s 651 mmHg 77%
    04:00 +10°C° 0 mm 4 m/s 651 mmHg 81%
    05:00 +9°C° 0 mm 3 m/s 651 mmHg 85%
    06:00 +10°C° 0 mm 3 m/s 652 mmHg 81%
    07:00 +11°C° 0 mm 4 m/s 652 mmHg 77%
    08:00 +12°C° 0 mm 4 m/s 653 mmHg 73%
    09:00 +15°C° 0 mm 4 m/s 653 mmHg 62%
    10:00 +18°C° 0 mm 3 m/s 654 mmHg 51%
    11:00 +21°C° 0 mm 3 m/s 654 mmHg 40%
    12:00 +23°C° 0 mm 2 m/s 654 mmHg 37%
    13:00 +23°C° 0 mm 2 m/s 653 mmHg 35%
    14:00 +24°C° 0 mm 1 m/s 653 mmHg 32%
    15:00 +21°C° 0.2 mm 2 m/s 652 mmHg 42%
    16:00 +18°C° 0.2 mm 3 m/s 652 mmHg 53%
    17:00 +15°C° 0.2 mm 4 m/s 651 mmHg 63%
    18:00 +15°C° 0.1 mm 4 m/s 652 mmHg 67%
    19:00 +14°C° 0.1 mm 4 m/s 652 mmHg 71%
    20:00 +13°C° 0.1 mm 3 m/s 653 mmHg 76%
    21:00 +13°C° 0 mm 4 m/s 653 mmHg 79%
    22:00 +12°C° 0 mm 4 m/s 653 mmHg 82%
    23:00 +12°C° 0 mm 4 m/s 653 mmHg 84%

    Après-demain, 6 Juin, Samedi

    Heure Température Précipitation Vent Pression Humidité
    00:00 +11°C° 0 mm 4 m/s 652 mmHg 85%
    01:00 +10°C° 0 mm 4 m/s 652 mmHg 85%
    02:00 +10°C° 0 mm 4 m/s 652 mmHg 86%
    03:00 +9°C° 0 mm 3 m/s 652 mmHg 88%
    04:00 +9°C° 0 mm 3 m/s 651 mmHg 91%
    05:00 +8°C° 0 mm 3 m/s 651 mmHg 93%
    06:00 +9°C° 0 mm 3 m/s 652 mmHg 90%
    07:00 +8°C° 0 mm 4 m/s 653 mmHg 86%
    08:00 +10°C° 0 mm 4 m/s 653 mmHg 82%
    09:00 +13°C° 0 mm 4 m/s 654 mmHg 69%
    10:00 +15°C° 0 mm 4 m/s 654 mmHg 55%
    11:00 +19°C° 0 mm 4 m/s 655 mmHg 42%
    12:00 +20°C° 0 mm 4 m/s 654 mmHg 37%
    13:00 +21°C° 0 mm 4 m/s 654 mmHg 32%
    14:00 +22°C° 0 mm 4 m/s 654 mmHg 27%
    15:00 +20°C° 0 mm 4 m/s 653 mmHg 30%
    16:00 +19°C° 0 mm 4 m/s 653 mmHg 33%
    17:00 +18°C° 0 mm 4 m/s 652 mmHg 35%
    18:00 +15°C° 0 mm 4 m/s 652 mmHg 44%
    19:00 +13°C° 0 mm 4 m/s 653 mmHg 52%
    20:00 +11°C° 0 mm 4 m/s 653 mmHg 60%
    21:00 +10°C° 0 mm 4 m/s 653 mmHg 68%
    22:00 +10°C° 0 mm 4 m/s 653 mmHg 76%
    23:00 +8°C° 0 mm 4 m/s 653 mmHg 83%

    7 Juin, Dimanche

    Heure Température Précipitation Vent Pression Humidité
    00:00 +8°C° 0 mm 4 m/s 652 mmHg 85%
    01:00 +9°C° 0 mm 3 m/s 652 mmHg 86%
    02:00 +8°C° 0 mm 3 m/s 652 mmHg 88%
    03:00 +8°C° 0 mm 3 m/s 652 mmHg 89%
    04:00 +7°C° 0 mm 4 m/s 652 mmHg 90%
    05:00 +7°C° 0 mm 4 m/s 652 mmHg 91%
    06:00 +8°C° 0 mm 4 m/s 652 mmHg 88%
    07:00 +9°C° 0 mm 5 m/s 653 mmHg 84%
    08:00 +10°C° 0 mm 5 m/s 654 mmHg 81%
    09:00 +14°C° 0 mm 5 m/s 654 mmHg 70%
    10:00 +16°C° 0 mm 5 m/s 654 mmHg 59%
    11:00 +19°C° 0 mm 5 m/s 655 mmHg 49%
    12:00 +20°C° 0 mm 5 m/s 654 mmHg 45%
    13:00 +20°C° 0 mm 5 m/s 654 mmHg 41%
    14:00 +21°C° 0 mm 4 m/s 654 mmHg 37%
    15:00 +20°C° 0 mm 4 m/s 653 mmHg 40%
    16:00 +19°C° 0 mm 4 m/s 653 mmHg 42%
    17:00 +18°C° 0 mm 4 m/s 652 mmHg 45%
    18:00 +16°C° 0 mm 3 m/s 652 mmHg 52%
    19:00 +13°C° 0 mm 3 m/s 652 mmHg 60%
    20:00 +11°C° 0 mm 3 m/s 652 mmHg 68%
    21:00 +10°C° 0 mm 2 m/s 652 mmHg 75%
    22:00 +9°C° 0 mm 2 m/s 652 mmHg 83%
    23:00 +8°C° 0 mm 2 m/s 652 mmHg 90%

    8 Juin, Lundi

    Heure Température Précipitation Vent Pression Humidité
    00:00 +8°C° 0 mm 2 m/s 652 mmHg 91%
    01:00 +8°C° 0 mm 2 m/s 652 mmHg 91%
    02:00 +8°C° 0 mm 2 m/s 651 mmHg 92%
    03:00 +7°C° 0 mm 2 m/s 651 mmHg 92%
    04:00 +7°C° 0 mm 3 m/s 651 mmHg 91%
    05:00 +7°C° 0 mm 3 m/s 651 mmHg 91%
    06:00 +8°C° 0 mm 3 m/s 652 mmHg 84%
    07:00 +10°C° 0 mm 4 m/s 652 mmHg 76%
    08:00 +11°C° 0 mm 4 m/s 653 mmHg 68%
    09:00 +13°C° 0 mm 4 m/s 653 mmHg 59%
    10:00 +17°C° 0 mm 4 m/s 654 mmHg 49%
    11:00 +19°C° 0 mm 4 m/s 654 mmHg 39%
    12:00 +21°C° 0 mm 4 m/s 654 mmHg 35%
    13:00 +22°C° 0 mm 4 m/s 653 mmHg 30%
    14:00 +23°C° 0 mm 4 m/s 653 mmHg 26%
    15:00 +22°C° 0 mm 4 m/s 652 mmHg 28%
    16:00 +21°C° 0 mm 3 m/s 652 mmHg 31%
    17:00 +20°C° 0 mm 3 m/s 652 mmHg 33%
    18:00 +18°C° 0 mm 3 m/s 651 mmHg 44%
    19:00 +14°C° 0 mm 3 m/s 651 mmHg 54%
    20:00 +12°C° 0 mm 3 m/s 651 mmHg 65%
    21:00 +12°C° 0 mm 3 m/s 651 mmHg 72%
    22:00 +11°C° 0 mm 4 m/s 651 mmHg 79%
    23:00 +10°C° 0 mm 4 m/s 651 mmHg 86%

    9 Juin, Mardi

    Heure Température Précipitation Vent Pression Humidité
    00:00 +10°C° 0 mm 3 m/s 651 mmHg 88%
    01:00 +9°C° 0 mm 3 m/s 651 mmHg 90%
    02:00 +9°C° 0 mm 3 m/s 650 mmHg 92%
    03:00 +9°C° 0 mm 3 m/s 650 mmHg 93%
    04:00 +8°C° 0 mm 3 m/s 650 mmHg 93%
    05:00 +8°C° 0 mm 3 m/s 650 mmHg 93%
    06:00 +9°C° 0 mm 3 m/s 651 mmHg 88%
    07:00 +10°C° 0 mm 3 m/s 651 mmHg 82%
    08:00 +11°C° 0 mm 3 m/s 652 mmHg 77%
    09:00 +14°C° 0 mm 3 m/s 652 mmHg 62%
    10:00 +18°C° 0 mm 3 m/s 653 mmHg 47%
    11:00 +21°C° 0 mm 3 m/s 653 mmHg 33%
    12:00 +23°C° 0 mm 2 m/s 653 mmHg 29%
    13:00 +24°C° 0 mm 2 m/s 652 mmHg 25%
    14:00 +26°C° 0 mm 2 m/s 652 mmHg 21%
    15:00 +25°C° 0 mm 2 m/s 651 mmHg 22%
    16:00 +24°C° 0 mm 2 m/s 651 mmHg 23%
    17:00 +22°C° 0 mm 3 m/s 650 mmHg 25%
    18:00 +19°C° 0 mm 3 m/s 650 mmHg 31%
    19:00 +17°C° 0 mm 3 m/s 650 mmHg 37%
    20:00 +14°C° 0 mm 3 m/s 650 mmHg 44%
    21:00 +13°C° 0 mm 3 m/s 650 mmHg 55%
    22:00 +12°C° 0 mm 3 m/s 650 mmHg 66%
    23:00 +11°C° 0 mm 3 m/s 650 mmHg 77%
    Voir plus